Location: Arcadia
(34.1397°N, 118.0353°W)
Time: 00:14:18
(UTC+00:00)

Cosmos 1190 Rocket - Pass Details

Date: 08 September 2024
Orbit: 753 x 777 km, 74.1° (Epoch: 13 October)

Event Time Altitude Azimuth Distance (km) Brightness Sun altitude
Exits shadow 12:16:53 22° 225° (SW) 1,615 5.2 -15.8°
Maximum altitude 12:19:59 48° 290° (WNW) 981 4.2 -15.2°
Drops below altitude 10° 12:24:59 10° 5° (N) 2,282 6.7 -14.2°
Sets 12:27:26 0° 11° (N) 3,211 7.6 -13.7°
